User: anonymous   Login
Location: Unspecified
(51.0950°N, 12.9690°E)
Time: 12:58:48
(UTC+00:00)
Language:

ESTCUBE 1 - Orbit

View from above orbital plane
View from above orbital plane
View from above satellite
View from above satellite

Ground track
Ground track

The orbit data is extracted from the following two-line orbital elements,

1 39161U 13021C   24104.13401735  .00002216  00000-0  32947-3 0  9991
2 39161  97.8325 172.5877 0010374  83.7766 276.4625 14.75905966587537
Epoch (UTC): 13 April 2024 03:12:59
Eccentricity: 0.0010374
inclination: 97.8325°
perigee height: 635 km
apogee height: 649 km
right ascension of ascending node: 172.5877°
argument of perigee: 83.7766°
revolutions per day: 14.75905966
mean anomaly at epoch: 276.4625°
orbit number at epoch: 58753

The dashed part of the orbit path shows where the satellite is in the earth's shadow,  

DLR